Orbital Elements at Epoch 2459200.5 (2020-Dec-17.0) TDB
Reference: JPL 20 (heliocentric ecliptic J2000)
Element | Value | Uncertainty (1-sigma) | Units |
e | .1890887204412139 | 3.4672e-08 | |
a | 2.219618814352177 | 7.5798e-09 | au |
q | 1.79991393287908 | 7.7439e-08 | au |
i | 4.341537030172407 | 3.6671e-06 | deg |
node | 96.37504037725397 | 5.2064e-05 | deg |
peri | 225.7834041960951 | 5.3618e-05 | deg |
M | 312.6146220515603 | 1.7306e-05 | deg |
tp | 2459359.485629628737 (2021-May-24.98562963) | 5.8633e-05 | TDB |
period | 1207.85839734407 3.31 | 6.1871e-06 1.694e-08 | d yr |
n | .2980481824621125 | 1.5267e-09 | deg/d |
Q | 2.639323695825274 | 9.0131e-09 | au |
|
| | Orbit Determination Parameters
Additional Information
|